• In Belgium
  • List of Countries
  • For 7 days
  • Water Temperature
  • Satellite Maps
  • Weather Map
  • Weather Widgets
  • user-avatar
    Login

    Hourly Weather Chardzhou

    Today, 21 November, Tuesday

    Time Temperature Precipitation Wind Pressure Humidity
    00:00 +11°C° 0 mm 4 mps 748 mmHg 28%
    01:00 +10°C° 0 mm 4 mps 748 mmHg 27%
    02:00 +10°C° 0 mm 4 mps 748 mmHg 28%
    03:00 +10°C° 0 mm 4 mps 748 mmHg 28%
    04:00 +10°C° 0 mm 4 mps 748 mmHg 28%
    05:00 +8°C° 0 mm 4 mps 748 mmHg 29%
    06:00 +8°C° 0 mm 4 mps 748 mmHg 29%
    07:00 +8°C° 0 mm 5 mps 748 mmHg 29%
    08:00 +10°C° 0 mm 5 mps 748 mmHg 25%
    09:00 +14°C° 0 mm 6 mps 748 mmHg 22%
    10:00 +16°C° 0 mm 7 mps 747 mmHg 18%
    11:00 +18°C° 0 mm 7 mps 747 mmHg 16%
    12:00 +20°C° 0 mm 7 mps 746 mmHg 14%
    13:00 +21°C° 0 mm 7 mps 746 mmHg 11%
    14:00 +21°C° 0 mm 7 mps 745 mmHg 11%
    15:00 +20°C° 0 mm 6 mps 745 mmHg 11%
    16:00 +20°C° 0 mm 5 mps 745 mmHg 11%
    17:00 +19°C° 0 mm 5 mps 745 mmHg 12%
    18:00 +16°C° 0 mm 5 mps 745 mmHg 13%
    19:00 +15°C° 0 mm 6 mps 745 mmHg 13%
    20:00 +14°C° 0 mm 6 mps 744 mmHg 14%
    21:00 +14°C° 0 mm 6 mps 744 mmHg 14%
    22:00 +13°C° 0 mm 6 mps 744 mmHg 15%
    23:00 +13°C° 0 mm 6 mps 743 mmHg 15%

    Tomorrow, 22 November, Wednesday

    Time Temperature Precipitation Wind Pressure Humidity
    00:00 +11°C° 0 mm 6 mps 743 mmHg 15%
    01:00 +11°C° 0 mm 6 mps 743 mmHg 15%
    02:00 +11°C° 0 mm 6 mps 743 mmHg 15%
    03:00 +10°C° 0 mm 7 mps 742 mmHg 14%
    04:00 +10°C° 0 mm 7 mps 742 mmHg 14%
    05:00 +10°C° 0 mm 7 mps 742 mmHg 14%
    06:00 +10°C° 0 mm 7 mps 742 mmHg 13%
    07:00 +10°C° 0 mm 7 mps 742 mmHg 13%
    08:00 +12°C° 0 mm 8 mps 742 mmHg 11%
    09:00 +16°C° 0 mm 9 mps 742 mmHg 8%
    10:00 +18°C° 0 mm 10 mps 742 mmHg 6%
    11:00 +21°C° 0 mm 10 mps 742 mmHg 6%
    12:00 +22°C° 0 mm 9 mps 741 mmHg 5%
    13:00 +24°C° 0 mm 9 mps 741 mmHg 4%
    14:00 +23°C° 0 mm 8 mps 740 mmHg 4%
    15:00 +23°C° 0 mm 7 mps 740 mmHg 5%
    16:00 +22°C° 0 mm 7 mps 740 mmHg 5%
    17:00 +21°C° 0 mm 7 mps 740 mmHg 5%
    18:00 +21°C° 0 mm 7 mps 740 mmHg 5%
    19:00 +20°C° 0 mm 8 mps 740 mmHg 5%
    20:00 +20°C° 0 mm 8 mps 740 mmHg 5%
    21:00 +20°C° 0 mm 8 mps 740 mmHg 6%
    22:00 +20°C° 0 mm 8 mps 740 mmHg 6%
    23:00 +18°C° 0 mm 8 mps 740 mmHg 6%

    Day after tomorrow, 23 November, Thursday

    Time Temperature Precipitation Wind Pressure Humidity
    00:00 +18°C° 0 mm 7 mps 740 mmHg 6%
    01:00 +18°C° 0 mm 7 mps 740 mmHg 6%
    02:00 +18°C° 0 mm 7 mps 740 mmHg 7%
    03:00 +17°C° 0 mm 6 mps 739 mmHg 8%
    04:00 +17°C° 0 mm 6 mps 739 mmHg 8%
    05:00 +16°C° 0 mm 6 mps 739 mmHg 9%
    06:00 +16°C° 0 mm 7 mps 740 mmHg 10%
    07:00 +15°C° 0 mm 7 mps 740 mmHg 10%
    08:00 +17°C° 0 mm 7 mps 740 mmHg 10%
    09:00 +20°C° 0 mm 7 mps 741 mmHg 10%
    10:00 +22°C° 0 mm 8 mps 741 mmHg 10%
    11:00 +23°C° 0 mm 7 mps 741 mmHg 10%
    12:00 +24°C° 0 mm 6 mps 740 mmHg 10%
    13:00 +26°C° 0 mm 5 mps 740 mmHg 10%
    14:00 +25°C° 0 mm 4 mps 740 mmHg 10%
    15:00 +24°C° 0 mm 3 mps 740 mmHg 11%
    16:00 +23°C° 0 mm 2 mps 740 mmHg 12%
    17:00 +21°C° 0 mm 2 mps 740 mmHg 13%
    18:00 +20°C° 0 mm 2 mps 741 mmHg 14%
    19:00 +18°C° 0 mm 2 mps 741 mmHg 15%
    20:00 +18°C° 0 mm 2 mps 741 mmHg 15%
    21:00 +18°C° 0 mm 2 mps 741 mmHg 15%
    22:00 +17°C° 0 mm 2 mps 741 mmHg 15%
    23:00 +17°C° 0 mm 2 mps 742 mmHg 15%

    24 November, Friday

    Time Temperature Precipitation Wind Pressure Humidity
    00:00 +17°C° 0 mm 2 mps 742 mmHg 15%
    01:00 +16°C° 0 mm 2 mps 742 mmHg 15%
    02:00 +16°C° 0.2 mm 3 mps 742 mmHg 20%
    03:00 +14°C° 0.2 mm 4 mps 742 mmHg 26%
    04:00 +14°C° 0.2 mm 5 mps 743 mmHg 32%
    05:00 +14°C° 0 mm 5 mps 743 mmHg 35%
    06:00 +13°C° 0 mm 4 mps 744 mmHg 38%
    07:00 +13°C° 0 mm 4 mps 744 mmHg 41%
    08:00 +14°C° 0 mm 4 mps 744 mmHg 39%
    09:00 +14°C° 0 mm 4 mps 745 mmHg 37%
    10:00 +15°C° 0 mm 4 mps 745 mmHg 35%
    11:00 +17°C° 0 mm 3 mps 745 mmHg 33%
    12:00 +18°C° 0 mm 3 mps 745 mmHg 31%
    13:00 +19°C° 0 mm 2 mps 744 mmHg 29%
    14:00 +18°C° 0 mm 3 mps 744 mmHg 30%
    15:00 +18°C° 0 mm 3 mps 744 mmHg 31%
    16:00 +18°C° 0 mm 3 mps 744 mmHg 32%
    17:00 +17°C° 0 mm 3 mps 744 mmHg 36%
    18:00 +16°C° 0 mm 3 mps 745 mmHg 39%
    19:00 +14°C° 0 mm 3 mps 745 mmHg 43%
    20:00 +14°C° 0 mm 3 mps 745 mmHg 45%
    21:00 +14°C° 0 mm 3 mps 744 mmHg 46%
    22:00 +13°C° 0 mm 3 mps 744 mmHg 48%
    23:00 +14°C° 0 mm 2 mps 744 mmHg 45%

    25 November, Saturday

    Time Temperature Precipitation Wind Pressure Humidity
    00:00 +13°C° 0 mm 2 mps 744 mmHg 42%
    01:00 +13°C° 0 mm 2 mps 743 mmHg 39%
    02:00 +13°C° 0 mm 2 mps 743 mmHg 38%
    03:00 +13°C° 0 mm 2 mps 743 mmHg 37%
    04:00 +13°C° 0 mm 2 mps 742 mmHg 36%
    05:00 +13°C° 0 mm 2 mps 743 mmHg 37%
    06:00 +13°C° 0 mm 2 mps 743 mmHg 37%
    07:00 +13°C° 0 mm 2 mps 743 mmHg 38%
    08:00 +14°C° 0 mm 2 mps 743 mmHg 36%
    09:00 +15°C° 0 mm 1 mps 743 mmHg 34%
    10:00 +16°C° 0 mm 1 mps 744 mmHg 32%
    11:00 +16°C° 0.3 mm 2 mps 744 mmHg 35%
    12:00 +14°C° 0.3 mm 3 mps 744 mmHg 39%
    13:00 +14°C° 0.3 mm 4 mps 744 mmHg 43%
    14:00 +13°C° 0.7 mm 5 mps 744 mmHg 52%
    15:00 +12°C° 0.7 mm 5 mps 745 mmHg 61%
    16:00 +10°C° 0.7 mm 5 mps 745 mmHg 71%
    17:00 +10°C° 0.3 mm 5 mps 746 mmHg 71%
    18:00 +10°C° 0.3 mm 5 mps 747 mmHg 72%
    19:00 +12°C° 0.3 mm 5 mps 747 mmHg 73%
    20:00 +10°C° 0 mm 5 mps 748 mmHg 72%
    21:00 +10°C° 0 mm 6 mps 748 mmHg 71%
    22:00 +10°C° 0 mm 6 mps 749 mmHg 69%
    23:00 +9°C° 0 mm 6 mps 749 mmHg 69%

    26 November, Sunday

    Time Temperature Precipitation Wind Pressure Humidity
    00:00 +9°C° 0 mm 5 mps 749 mmHg 68%
    01:00 +9°C° 0 mm 5 mps 750 mmHg 68%
    02:00 +8°C° 0 mm 4 mps 750 mmHg 68%
    03:00 +8°C° 0 mm 4 mps 751 mmHg 68%
    04:00 +8°C° 0 mm 4 mps 751 mmHg 67%
    05:00 +9°C° 0 mm 3 mps 752 mmHg 69%
    06:00 +9°C° 0 mm 3 mps 752 mmHg 70%
    07:00 +9°C° 0 mm 2 mps 753 mmHg 71%
    08:00 +9°C° 0.1 mm 2 mps 753 mmHg 70%
    09:00 +9°C° 0.1 mm 2 mps 753 mmHg 69%
    10:00 +10°C° 0.1 mm 3 mps 753 mmHg 68%
    11:00 +10°C° 0 mm 3 mps 753 mmHg 65%
    12:00 +10°C° 0 mm 3 mps 753 mmHg 61%
    13:00 +11°C° 0 mm 4 mps 753 mmHg 58%
    14:00 +11°C° 0 mm 4 mps 753 mmHg 57%
    15:00 +11°C° 0 mm 4 mps 753 mmHg 55%
    16:00 +11°C° 0 mm 4 mps 753 mmHg 53%
    17:00 +11°C° 0 mm 4 mps 753 mmHg 53%
    18:00 +11°C° 0 mm 4 mps 753 mmHg 53%
    19:00 +11°C° 0 mm 3 mps 753 mmHg 52%
    20:00 +10°C° 0 mm 4 mps 753 mmHg 52%
    21:00 +10°C° 0 mm 4 mps 754 mmHg 51%
    22:00 +10°C° 0 mm 4 mps 754 mmHg 51%
    23:00 +8°C° 0 mm 5 mps 754 mmHg 50%
    Show more